| time (UTC) | temp C | wind direction | speed KPH | gust KPH | rain 1hr cm | rain 24hr cm | rain mn cm | humidity % | barometer mb |
| 20260505093000 | 4 | 203 | 1.6 | 3.2 | 0.00 | 0.00 | 0.00 | 99 | 1005.8 |
| 20260505092458 | 4 | 180 | 0.0 | 1.6 | 0.00 | 0.00 | 0.00 | 99 | 1005.8 |
| 20260505091955 | 4 | 168 | 0.0 | 0.0 | 0.00 | 0.00 | 0.00 | 99 | 1005.8 |
| 20260505091453 | 4 | 158 | 0.0 | 0.0 | 0.00 | 0.00 | 0.00 | 99 | 1006.1 |
| 20260505090951 | 4 | 199 | 1.6 | 3.2 | 0.00 | 0.00 | 0.00 | 99 | 1005.9 |
| 20260505090448 | 5 | 181 | 0.0 | 1.6 | 0.00 | 0.00 | 0.00 | 99 | 1006.0 |
| 20260505085945 | 5 | 146 | 1.6 | 1.6 | 0.00 | 0.00 | 0.00 | 99 | 1006.0 |
| 20260505085443 | 5 | 149 | 0.0 | 1.6 | 0.00 | 0.00 | 0.00 | 99 | 1006.0 |
| 20260505084941 | 5 | 149 | 0.0 | 1.6 | 0.00 | 0.00 | 0.00 | 99 | 1006.2 |
| 20260505084439 | 5 | 110 | 3.2 | 3.2 | 0.00 | 0.00 | 0.00 | 99 | 1006.0 |
| 20260505083937 | 5 | 172 | 0.0 | 1.6 | 0.00 | 0.00 | 0.00 | 99 | 1006.3 |
| 20260505083434 | 4 | 159 | 1.6 | 3.2 | 0.00 | 0.00 | 0.00 | 99 | 1006.1 |
| 20260505082930 | 4 | 112 | 1.6 | 3.2 | 0.00 | 0.00 | 0.00 | 99 | 1006.0 |
| 20260505082426 | 4 | 153 | 0.0 | 1.6 | 0.00 | 0.00 | 0.00 | 99 | 1006.0 |
| 20260505081923 | 4 | 154 | 0.0 | 0.0 | 0.00 | 0.00 | 0.00 | 99 | 1006.2 |
| 20260505081420 | 4 | 124 | 1.6 | 3.2 | 0.00 | 0.00 | 0.00 | 99 | 1006.4 |
| 20260505080916 | 4 | 208 | 3.2 | 4.8 | 0.00 | 0.00 | 0.00 | 99 | 1006.4 |
| 20260505080413 | 4 | 162 | 0.0 | 3.2 | 0.00 | 0.00 | 0.00 | 99 | 1006.4 |
| 20260505075908 | 4 | 237 | 4.8 | 9.7 | 0.00 | 1.57 | 1.57 | 99 | 1006.2 |
| 20260505075405 | 4 | 146 | 1.6 | 4.8 | 0.00 | 1.57 | 1.57 | 99 | 1006.5 |
| 20260505074903 | 4 | 159 | 0.0 | 1.6 | 0.00 | 1.57 | 1.57 | 99 | 1006.5 |
| 20260505074400 | 4 | 162 | 0.0 | 1.6 | 0.00 | 1.57 | 1.57 | 99 | 1006.3 |
| 20260505073857 | 5 | 180 | 0.0 | 3.2 | 0.00 | 1.57 | 1.57 | 99 | 1006.5 |
| 20260505073355 | 4 | 111 | 3.2 | 6.4 | 0.00 | 1.57 | 1.57 | 99 | 1006.4 |
| 20260505072852 | 4 | 171 | 1.6 | 1.6 | 0.00 | 1.57 | 1.57 | 99 | 1006.5 |
| 20260505072348 | 4 | 32 | 6.4 | 9.7 | 0.00 | 1.57 | 1.57 | 99 | 1006.2 |
| 20260505071844 | 5 | 161 | 0.0 | 1.6 | 0.00 | 1.57 | 1.57 | 99 | 1006.6 |
| 20260505071340 | 4 | 201 | 1.6 | 3.2 | 0.00 | 1.57 | 1.57 | 99 | 1006.7 |
| 20260505070839 | 4 | 9 | 4.8 | 11.3 | 0.00 | 1.57 | 1.57 | 99 | 1006.4 |
| 20260505070335 | 4 | 214 | 3.2 | 3.2 | 0.00 | 1.57 | 1.57 | 99 | 1006.6 |
| 20260505065830 | 4 | 19 | 6.4 | 9.7 | 0.00 | 1.57 | 1.57 | 99 | 1006.6 |
| 20260505065327 | 4 | 232 | 3.2 | 3.2 | 0.00 | 1.57 | 1.57 | 99 | 1006.6 |
| 20260505064824 | 4 | 63 | 1.6 | 4.8 | 0.00 | 1.57 | 1.57 | 99 | 1006.5 |
| 20260505064321 | 4 | 148 | 1.6 | 4.8 | 0.00 | 1.57 | 1.57 | 99 | 1006.7 |
| 20260505063819 | 4 | 218 | 3.2 | 6.4 | 0.00 | 1.57 | 1.57 | 99 | 1006.7 |
| 20260505063315 | 4 | 77 | 3.2 | 3.2 | 0.00 | 1.57 | 1.57 | 99 | 1006.6 |
| 20260505062811 | 4 | 13 | 8.0 | 9.7 | 0.00 | 1.57 | 1.57 | 99 | 1006.5 |
| 20260505062309 | 4 | 108 | 3.2 | 4.8 | 0.00 | 1.57 | 1.57 | 99 | 1006.5 |
| 20260505061806 | 4 | 193 | 0.0 | 11.3 | 0.00 | 1.57 | 1.57 | 99 | 1006.6 |
| 20260505061304 | 4 | 313 | 8.0 | 16.1 | 0.00 | 1.57 | 1.57 | 99 | 1006.4 |
| 20260505060801 | 5 | 331 | 8.0 | 11.3 | 0.00 | 1.57 | 1.57 | 99 | 1006.5 |
| 20260505060258 | 5 | 8 | 4.8 | 12.9 | 0.00 | 1.57 | 1.57 | 99 | 1006.5 |
| 20260505055754 | 5 | 258 | 6.4 | 14.5 | 0.00 | 1.57 | 1.57 | 99 | 1006.6 |
| 20260505055250 | 5 | 209 | 3.2 | 11.3 | 0.00 | 1.57 | 1.57 | 99 | 1006.8 |
| 20260505054748 | 5 | 253 | 9.7 | 12.9 | 0.00 | 1.57 | 1.57 | 99 | 1006.6 |
| 20260505054245 | 5 | 319 | 6.4 | 9.7 | 0.00 | 1.57 | 1.57 | 99 | 1006.7 |
| 20260505053743 | 5 | 182 | 3.2 | 6.4 | 0.00 | 1.57 | 1.57 | 99 | 1006.7 |
| 20260505053239 | 5 | 278 | 8.0 | 9.7 | 0.00 | 1.57 | 1.57 | 99 | 1006.7 |
| 20260505052736 | 5 | 155 | 3.2 | 4.8 | 0.00 | 1.57 | 1.57 | 99 | 1007.0 |
| 20260505052233 | 5 | 310 | 6.4 | 6.4 | 0.00 | 1.57 | 1.57 | 98 | 1006.7 |
| 20260505051730 | 5 | 332 | 4.8 | 6.4 | 0.00 | 1.57 | 1.57 | 98 | 1006.9 |
| 20260505051228 | 5 | 225 | 8.0 | 12.9 | 0.00 | 1.57 | 1.57 | 98 | 1006.9 |
| 20260505050726 | 5 | 249 | 4.8 | 4.8 | 0.00 | 1.57 | 1.57 | 98 | 1007.2 |
| 20260505050224 | 5 | 311 | 8.0 | 11.3 | 0.00 | 1.57 | 1.57 | 98 | 1007.1 |
| 20260505041654 | 6 | 210 | 4.8 | 4.8 | 0.00 | 1.57 | 1.57 | 97 | 1007.5 |
| 20260505041151 | 6 | 24 | 3.2 | 9.7 | 0.00 | 1.57 | 1.57 | 97 | 1007.4 |
| 20260505040648 | 6 | 181 | 3.2 | 9.7 | 0.00 | 1.57 | 1.57 | 96 | 1007.7 |
| 20260505040145 | 6 | 305 | 8.0 | 11.3 | 0.00 | 1.57 | 1.57 | 96 | 1007.7 |
| 20260505035642 | 6 | 184 | 1.6 | 9.7 | 0.00 | 1.57 | 1.57 | 96 | 1007.7 |
| 20260505035138 | 6 | 313 | 8.0 | 12.9 | 0.00 | 1.57 | 1.57 | 95 | 1007.8 |
| 20260505034635 | 6 | 190 | 3.2 | 9.7 | 0.00 | 1.57 | 1.57 | 95 | 1008.1 |
| 20260505034132 | 6 | 12 | 3.2 | 6.4 | 0.00 | 1.57 | 1.57 | 95 | 1008.3 |
| 20260505033628 | 6 | 200 | 4.8 | 9.7 | 0.00 | 1.57 | 1.57 | 94 | 1008.1 |
| 20260505033127 | 6 | 325 | 8.0 | 11.3 | 0.00 | 1.57 | 1.57 | 94 | 1008.2 |
| 20260505032624 | 6 | 55 | 3.2 | 4.8 | 0.00 | 1.57 | 1.57 | 95 | 1008.1 |
| 20260505032120 | 6 | 223 | 9.7 | 11.3 | 0.00 | 1.57 | 1.57 | 94 | 1008.3 |
| 20260505031618 | 6 | 297 | 6.4 | 11.3 | 0.00 | 1.57 | 1.57 | 94 | 1008.1 |
| 20260505031114 | 6 | 251 | 4.8 | 6.4 | 0.00 | 1.57 | 1.57 | 93 | 1008.5 |
| 20260505030611 | 6 | 204 | 4.8 | 4.8 | 0.00 | 1.57 | 1.57 | 93 | 1008.7 |
| 20260505030107 | 7 | 136 | 1.6 | 3.2 | 0.00 | 1.57 | 1.57 | 93 | 1008.8 |
| 20260505025602 | 6 | 234 | 3.2 | 6.4 | 0.00 | 1.57 | 1.57 | 94 | 1009.0 |
| 20260505025057 | 6 | 251 | 4.8 | 6.4 | 0.00 | 1.57 | 1.57 | 94 | 1008.7 |
| 20260505024553 | 6 | 12 | 6.4 | 6.4 | 0.00 | 1.57 | 1.57 | 94 | 1008.8 |
| 20260505024050 | 6 | 250 | 6.4 | 9.7 | 0.00 | 1.57 | 1.57 | 95 | 1008.9 |
| 20260505023547 | 6 | 299 | 4.8 | 11.3 | 0.00 | 1.57 | 1.57 | 95 | 1009.0 |
| 20260505023044 | 6 | 294 | 11.3 | 14.5 | 0.00 | 1.57 | 1.57 | 94 | 1009.1 |
| 20260505022542 | 6 | 203 | 3.2 | 4.8 | 0.00 | 1.57 | 1.57 | 94 | 1009.4 |
| 20260505022039 | 6 | 316 | 8.0 | 11.3 | 0.00 | 1.57 | 1.57 | 93 | 1009.5 |
| 20260505021536 | 7 | 336 | 6.4 | 6.4 | 0.00 | 1.57 | 1.57 | 93 | 1009.6 |
| 20260505021033 | 6 | 195 | 3.2 | 6.4 | 0.00 | 1.57 | 1.57 | 93 | 1009.6 |
| 20260505020532 | 6 | 259 | 4.8 | 6.4 | 0.00 | 1.57 | 1.57 | 94 | 1009.7 |
| 20260505020029 | 6 | 349 | 4.8 | 12.9 | 0.00 | 1.57 | 1.57 | 94 | 1009.6 |
| 20260505015526 | 6 | 273 | 3.2 | 9.7 | 0.00 | 1.57 | 1.57 | 94 | 1009.6 |
| 20260505015023 | 7 | 338 | 9.7 | 12.9 | 0.00 | 1.57 | 1.57 | 92 | 1009.8 |
| 20260505014520 | 7 | 21 | 4.8 | 11.3 | 0.00 | 1.57 | 1.57 | 93 | 1009.8 |
| 20260505014017 | 6 | 352 | 3.2 | 9.7 | 0.00 | 1.57 | 1.57 | 93 | 1009.9 |
| 20260505013514 | 6 | 290 | 6.4 | 12.9 | 0.00 | 1.57 | 1.57 | 93 | 1009.9 |
| 20260505013012 | 6 | 315 | 8.0 | 11.3 | 0.00 | 1.57 | 1.57 | 93 | 1010.0 |
| 20260505012510 | 6 | 340 | 8.0 | 12.9 | 0.00 | 1.57 | 1.57 | 92 | 1010.4 |
| 20260505012006 | 7 | 340 | 9.7 | 14.5 | 0.00 | 1.57 | 1.57 | 92 | 1010.3 |
| 20260505011502 | 7 | 321 | 6.4 | 11.3 | 0.00 | 1.57 | 1.57 | 92 | 1010.8 |
| 20260505010959 | 7 | 228 | 4.8 | 9.7 | 0.00 | 1.57 | 1.57 | 91 | 1010.9 |
| 20260505010455 | 7 | 321 | 9.7 | 12.9 | 0.00 | 1.57 | 1.57 | 91 | 1010.7 |
| 20260505005951 | 7 | 257 | 1.6 | 4.8 | 0.00 | 1.57 | 1.57 | 92 | 1011.0 |
| 20260505005448 | 6 | 214 | 6.4 | 9.7 | 0.00 | 1.57 | 1.57 | 93 | 1011.0 |
| 20260505004946 | 6 | 227 | 4.8 | 9.7 | 0.00 | 1.57 | 1.57 | 93 | 1011.3 |
| 20260505004442 | 6 | 203 | 4.8 | 11.3 | 0.00 | 1.57 | 1.57 | 93 | 1011.2 |
| 20260505003939 | 6 | 352 | 4.8 | 12.9 | 0.00 | 1.57 | 1.57 | 93 | 1011.3 |
| 20260505003436 | 6 | 298 | 4.8 | 12.9 | 0.00 | 1.57 | 1.57 | 94 | 1011.5 |
| 20260505002932 | 6 | 324 | 6.4 | 14.5 | 0.00 | 1.57 | 1.57 | 94 | 1011.8 |
| 20260505002428 | 6 | 212 | 4.8 | 6.4 | 0.00 | 1.57 | 1.57 | 94 | 1011.8 |
| 20260505001927 | 6 | 327 | 6.4 | 9.7 | 0.00 | 1.57 | 1.57 | 94 | 1011.6 |
| 20260505001424 | 6 | 16 | 6.4 | 9.7 | 0.00 | 1.57 | 1.57 | 94 | 1011.6 |
| 20260505000921 | 6 | 113 | 1.6 | 9.7 | 0.00 | 1.57 | 1.57 | 95 | 1011.7 |
| 20260505000420 | 6 | 330 | 6.4 | 12.9 | 0.00 | 1.57 | 1.57 | 95 | 1011.9 |
| 20260504235916 | 6 | 291 | 4.8 | 9.7 | 0.00 | 1.57 | 1.57 | 95 | 1012.1 |
| 20260504235413 | 6 | 336 | 6.4 | 9.7 | 0.00 | 1.57 | 1.57 | 95 | 1012.3 |
| 20260504234909 | 6 | 159 | 3.2 | 6.4 | 0.00 | 1.57 | 1.57 | 96 | 1012.5 |
| 20260504234407 | 6 | 321 | 6.4 | 9.7 | 0.00 | 1.57 | 1.57 | 96 | 1012.4 |
| 20260504233903 | 6 | 310 | 9.7 | 11.3 | 0.00 | 1.57 | 1.57 | 96 | 1012.8 |
| 20260504233359 | 6 | 301 | 4.8 | 9.7 | 0.00 | 1.57 | 1.57 | 95 | 1012.9 |
| 20260504232855 | 6 | 129 | 3.2 | 6.4 | 0.00 | 1.57 | 1.57 | 96 | 1013.0 |
| 20260504232353 | 6 | 330 | 11.3 | 12.9 | 0.00 | 1.57 | 1.57 | 96 | 1012.7 |
| 20260504231849 | 6 | 330 | 8.0 | 12.9 | 0.00 | 1.57 | 1.57 | 96 | 1013.0 |
| 20260504231346 | 6 | 11 | 6.4 | 9.7 | 0.00 | 1.57 | 1.57 | 97 | 1013.1 |
| 20260504230842 | 6 | 309 | 6.4 | 9.7 | 0.00 | 1.57 | 1.57 | 97 | 1013.1 |
| 20260504230340 | 5 | 21 | 6.4 | 12.9 | 0.00 | 1.57 | 1.57 | 98 | 1013.2 |
| 20260504225839 | 5 | 8 | 11.3 | 12.9 | 0.00 | 1.57 | 1.57 | 98 | 1013.4 |
| 20260504225335 | 6 | 206 | 3.2 | 6.4 | 0.00 | 1.57 | 1.57 | 98 | 1013.4 |
| 20260504224832 | 6 | 182 | 3.2 | 3.2 | 0.00 | 1.57 | 1.57 | 99 | 1013.4 |
| 20260504224329 | 5 | 215 | 3.2 | 9.7 | 0.00 | 1.57 | 1.57 | 99 | 1013.3 |
| 20260504223826 | 5 | 335 | 9.7 | 11.3 | 0.00 | 1.57 | 1.57 | 99 | 1013.5 |
| 20260504223321 | 5 | 317 | 8.0 | 11.3 | 0.00 | 1.57 | 1.57 | 99 | 1013.5 |
| 20260504222818 | 5 | 350 | 6.4 | 9.7 | 0.00 | 1.57 | 1.57 | 99 | 1013.7 |
| 20260504222315 | 5 | 44 | 1.6 | 9.7 | 0.00 | 1.57 | 1.57 | 99 | 1013.8 |
| 20260504221814 | 5 | 324 | 6.4 | 6.4 | 0.00 | 1.57 | 1.57 | 99 | 1013.7 |
| 20260504221310 | 6 | 309 | 4.8 | 6.4 | 0.00 | 1.57 | 1.57 | 99 | 1013.9 |
| 20260504220807 | 6 | 329 | 8.0 | 12.9 | 0.00 | 1.57 | 1.57 | 99 | 1013.9 |
| 20260504220303 | 6 | 132 | 3.2 | 3.2 | 0.00 | 1.57 | 1.57 | 99 | 1014.0 |
| 20260504215801 | 5 | 231 | 1.6 | 4.8 | 0.00 | 1.57 | 1.57 | 99 | 1014.1 |
| 20260504215257 | 5 | 227 | 1.6 | 6.4 | 0.00 | 1.57 | 1.57 | 99 | 1014.6 |
| 20260504214753 | 5 | 197 | 1.6 | 3.2 | 0.00 | 1.57 | 1.57 | 99 | 1014.7 |
| 20260504214250 | 6 | 212 | 3.2 | 3.2 | 0.00 | 1.57 | 1.57 | 99 | 1014.6 |
| 20260504213747 | 5 | 146 | 0.0 | 6.4 | 0.00 | 1.57 | 1.57 | 99 | 1014.5 |
| 20260504213243 | 5 | 186 | 0.0 | 1.6 | 0.00 | 1.57 | 1.57 | 99 | 1014.4 |
| 20260504212741 | 5 | 191 | 0.0 | 3.2 | 0.00 | 1.57 | 1.57 | 99 | 1014.4 |
| 20260504212237 | 5 | 231 | 3.2 | 3.2 | 0.00 | 1.57 | 1.57 | 99 | 1014.4 |
| 20260504211735 | 5 | 348 | 4.8 | 6.4 | 0.00 | 1.57 | 1.57 | 99 | 1014.3 |
| 20260504211231 | 5 | 234 | 3.2 | 4.8 | 0.00 | 1.57 | 1.57 | 99 | 1014.6 |
| 20260504210729 | 5 | 233 | 3.2 | 3.2 | 0.00 | 1.57 | 1.57 | 99 | 1014.6 |
| 20260504210226 | 5 | 193 | 0.0 | 3.2 | 0.00 | 1.57 | 1.57 | 99 | 1014.9 |
| 20260504205722 | 5 | 201 | 1.6 | 3.2 | 0.00 | 1.57 | 1.57 | 99 | 1014.9 |
| 20260504205220 | 5 | 181 | 1.6 | 1.6 | 0.00 | 1.57 | 1.57 | 99 | 1015.1 |
| 20260504204718 | 5 | 172 | 0.0 | 1.6 | 0.00 | 1.57 | 1.57 | 99 | 1015.0 |
| 20260504204216 | 5 | 19 | 4.8 | 9.7 | 0.00 | 1.57 | 1.57 | 99 | 1014.8 |
| 20260504203715 | 5 | 333 | 4.8 | 4.8 | 0.00 | 1.57 | 1.57 | 99 | 1015.1 |
| 20260504203212 | 5 | 322 | 4.8 | 9.7 | 0.00 | 1.57 | 1.57 | 99 | 1015.3 |
| 20260504202712 | 5 | 251 | 3.2 | 6.4 | 0.00 | 1.57 | 1.57 | 99 | 1015.2 |
| 20260504202209 | 5 | 240 | 3.2 | 6.4 | 0.00 | 1.57 | 1.57 | 99 | 1015.4 |
| 20260504201706 | 5 | 171 | 0.0 | 3.2 | 0.00 | 1.57 | 1.57 | 99 | 1015.7 |
| 20260504201204 | 5 | 291 | 4.8 | 4.8 | 0.00 | 1.57 | 1.57 | 99 | 1015.5 |
| 20260504200701 | 5 | 177 | 0.0 | 3.2 | 0.00 | 1.57 | 1.57 | 99 | 1016.0 |
| 20260504200157 | 5 | 335 | 3.2 | 6.4 | 0.00 | 1.57 | 1.57 | 99 | 1015.9 |
| 20260504195653 | 5 | 161 | 0.0 | 1.6 | 0.00 | 1.57 | 1.57 | 99 | 1016.2 |
| 20260504195149 | 5 | 190 | 6.4 | 9.7 | 0.00 | 1.57 | 1.57 | 99 | 1016.3 |
| 20260504194646 | 5 | 21 | 4.8 | 11.3 | 0.00 | 1.57 | 1.57 | 99 | 1016.3 |
| 20260504194142 | 5 | 291 | 3.2 | 4.8 | 0.00 | 1.57 | 1.57 | 99 | 1016.6 |
| 20260504193639 | 5 | 289 | 4.8 | 6.4 | 0.00 | 1.57 | 1.57 | 99 | 1016.9 |
| 20260504193137 | 5 | 210 | 3.2 | 4.8 | 0.00 | 1.57 | 1.57 | 99 | 1016.7 |
| 20260504192635 | 5 | 188 | 1.6 | 3.2 | 0.00 | 1.57 | 1.57 | 99 | 1016.8 |
| 20260504192133 | 5 | 307 | 8.0 | 11.3 | 0.00 | 1.57 | 1.57 | 99 | 1016.7 |
| 20260504191631 | 5 | 282 | 11.3 | 14.5 | 0.00 | 1.57 | 1.57 | 99 | 1016.6 |
| 20260504191127 | 5 | 85 | 1.6 | 6.4 | 0.00 | 1.57 | 1.57 | 99 | 1016.8 |
| 20260504190623 | 5 | 294 | 6.4 | 9.7 | 0.13 | 1.57 | 1.57 | 99 | 1016.7 |
| 20260504190120 | 5 | 226 | 6.4 | 9.7 | 0.00 | 1.55 | 1.55 | 99 | 1016.9 |
| 20260504185616 | 5 | 297 | 8.0 | 12.9 | 0.00 | 1.55 | 1.55 | 99 | 1016.7 |
| 20260504185113 | 5 | 190 | 3.2 | 9.7 | 0.00 | 1.55 | 1.55 | 99 | 1016.9 |
| 20260504184609 | 5 | 32 | 3.2 | 6.4 | 0.18 | 1.55 | 1.55 | 99 | 1016.8 |
| 20260504184104 | 5 | 223 | 4.8 | 6.4 | 0.18 | 1.55 | 1.55 | 99 | 1017.0 |
| 20260504183601 | 5 | 341 | 9.7 | 11.3 | 0.00 | 1.52 | 1.52 | 99 | 1017.0 |
| 20260504183059 | 5 | 201 | 3.2 | 4.8 | 0.00 | 1.52 | 1.52 | 99 | 1016.9 |
| 20260504182556 | 5 | 281 | 3.2 | 4.8 | 0.13 | 1.52 | 1.52 | 99 | 1016.8 |
| 20260504182053 | 5 | 188 | 1.6 | 6.4 | 0.13 | 1.52 | 1.52 | 99 | 1017.1 |
| 20260504181550 | 5 | 330 | 4.8 | 6.4 | 0.00 | 1.50 | 1.50 | 99 | 1017.1 |
| 20260504181048 | 5 | 345 | 3.2 | 6.4 | 0.00 | 1.50 | 1.50 | 99 | 1017.1 |
| 20260504180547 | 5 | 261 | 4.8 | 6.4 | 0.18 | 1.50 | 1.50 | 99 | 1017.3 |
| 20260504180046 | 4 | 285 | 4.8 | 6.4 | 0.18 | 1.50 | 1.50 | 99 | 1017.2 |
| 20260504175542 | 4 | 40 | 3.2 | 6.4 | 0.13 | 1.47 | 1.47 | 99 | 1017.4 |
| 20260504175039 | 4 | 345 | 4.8 | 9.7 | 0.13 | 1.47 | 1.47 | 99 | 1017.4 |
| 20260504174537 | 4 | 17 | 4.8 | 9.7 | 0.18 | 1.45 | 1.45 | 99 | 1017.3 |
| 20260504174034 | 4 | 311 | 6.4 | 6.4 | 0.00 | 1.42 | 1.42 | 99 | 1017.4 |
| 20260504173531 | 5 | 313 | 3.2 | 6.4 | 0.18 | 1.42 | 1.42 | 99 | 1017.4 |
| 20260504173028 | 5 | 201 | 1.6 | 6.4 | 0.00 | 1.40 | 1.40 | 99 | 1017.6 |
| 20260504172524 | 4 | 242 | 3.2 | 4.8 | 0.13 | 1.40 | 1.40 | 99 | 1017.5 |
| 20260504172021 | 4 | 230 | 3.2 | 4.8 | 0.13 | 1.40 | 1.40 | 99 | 1017.7 |
| 20260504171518 | 4 | 220 | 3.2 | 4.8 | 0.18 | 1.37 | 1.37 | 99 | 1017.8 |
| 20260504171015 | 4 | 191 | 1.6 | 3.2 | 0.18 | 1.37 | 1.37 | 99 | 1017.9 |
| 20260504170510 | 4 | 190 | 0.0 | 3.2 | 0.13 | 1.35 | 1.35 | 99 | 1017.9 |
| 20260504160431 | 4 | 288 | 4.8 | 6.4 | 0.18 | 1.17 | 1.17 | 99 | 1018.4 |
| 20260504150854 | 4 | 208 | 3.2 | 3.2 | 0.18 | 1.04 | 1.04 | 99 | 1018.8 |
| 20260504150351 | 4 | 189 | 0.0 | 1.6 | 0.13 | 1.02 | 1.02 | 99 | 1018.9 |
| 20260504141321 | 4 | 195 | 1.6 | 3.2 | 0.13 | 0.91 | 0.91 | 99 | 1019.1 |
| 20260504140817 | 4 | 14 | 3.2 | 4.8 | 0.18 | 0.89 | 0.89 | 99 | 1019.1 |
| 20260504140313 | 4 | 53 | 3.2 | 9.7 | 0.18 | 0.89 | 0.89 | 99 | 1019.0 |
| 20260504130742 | 4 | 303 | 3.2 | 3.2 | 0.13 | 0.74 | 0.74 | 99 | 1019.5 |
| 20260504130238 | 4 | 110 | 3.2 | 4.8 | 0.00 | 0.71 | 0.71 | 99 | 1019.5 |
| 20260504120202 | 4 | 147 | 0.0 | 3.2 | 0.13 | 0.58 | 0.58 | 99 | 1019.8 |
| 20260504110629 | 4 | 206 | 1.6 | 1.6 | 0.36 | 0.46 | 0.46 | 99 | 1020.2 |
| 20260504110125 | 4 | 201 | 0.0 | 1.6 | 0.18 | 0.43 | 0.43 | 99 | 1020.2 |
| 20260504100550 | 3 | 218 | 3.2 | 3.2 | 0.13 | 0.25 | 0.25 | 99 | 1020.3 |